Regional Weather Roundup
Issued by NWS

Home | Current Version | Previous Version | Text Only | Print | Product List | Glossary On
Versions: 1 2 3 4 5 6 7 8 9 10 11 12 13 14 15 16 17 18 19 20 21 22 23 24 25 26 27 28 29 30 31 32 33 34 35 36 37 38 39 40 41 42 43 44 45 46 47 48 49 50
000
ASUS43 KTOP 150908
RWRKS

WEATHER ROUNDUP FOR KANSAS
NATIONAL WEATHER SERVICE GOODLAND KS
400 AM CDT TUE APR 15 2014

NOTE:  "FAIR" INDICATES FEW OR NO CLOUDS BELOW 12,000 FEET WITH NO
SIGNIFICANT WEATHER AND/OR OBSTRUCTIONS TO VISIBILITY.

KSZ001>006-013>018-027>032-041>047-151000-
NORTHWEST KANSAS

CITY           SKY/WX    TMP DP  RH WIND       PRES   REMARKS
GOODLAND       CLEAR     27  17  66 SW13      30.14F WCI  16
HAYS           CLEAR     21  12  68 W6        30.19S
HILL CITY      CLEAR     24  19  81 W7        30.18F
RUSSELL        CLEAR     21  14  74 SW6       30.18S
$$

KSZ061>065-074>080-084>089-151000-
SOUTHWEST KANSAS

CITY           SKY/WX    TMP DP  RH WIND       PRES   REMARKS
DODGE CITY     CLEAR     28  17  63 W9        30.20F
ELKHART          N/A     31  13  47 SW5         N/A
GARDEN CITY    CLEAR     26  18  71 W8        30.19F
GREAT BEND     CLEAR     27  12  54 W7        30.19F
LIBERAL        CLEAR     25  18  74 W9        30.23F
PRATT          CLEAR     28  21  74 W9        30.20F
$$

KSZ066>073-081>083-090>101-151000-
SOUTHEAST KANSAS

CITY           SKY/WX    TMP DP  RH WIND       PRES   REMARKS
CHANUTE        CLEAR     28  24  85 SE3       30.19S
COFFEYVILLE    CLEAR     27  25  92 SE3       30.21S
HUTCHINSON     CLEAR     27  17  66 NW7       30.20S
MEDICINE LODGE   N/A     29  19  66 N5        30.21F
NEWTON         CLEAR     28  16  59 NW6       30.21F
PARSONS        CLEAR     26  23  88 CALM      30.21S
WICHITA INTL   CLEAR     30  19  63 NW8       30.20S
WICHITA JABRA  CLEAR     33  18  53 W8        30.19S
WICHITA MCCONL CLEAR     35  19  52 W2        30.20S
WINFIELD       CLEAR     29  19  66 CALM      30.21F
$$

KSZ007>012-019>026-033>040-048>060-102>105-151000-
NORTHEAST KANSAS

CITY           SKY/WX    TMP DP  RH WIND       PRES   REMARKS
CONCORDIA      CLEAR     27  23  85 W6        30.18S
EMPORIA        CLEAR     29  22  75 W5        30.18S
LAWRENCE       CLEAR     24  22  91 NW6       30.20S
MANHATTAN      CLEAR     24  21  88 CALM      30.20S
OLATHE IND     CLEAR     29  24  82 CALM      30.19S
OLATHE EXE     CLEAR     30  23  75 CALM      30.18R
SALINA         CLEAR     29  20  69 NW6       30.20S
TOPEKA BILLARD CLEAR     31  26  82 CALM      30.20S
TOPEKA FORBES  CLEAR     28  22  78 SW3       30.19R
$$



USA.gov is the U.S. government's official web portal to all federal, state and local government web resources and services.